| time (UTC) | temp F | wind direction | speed knots | gust knots | rain 1hr in | rain 24hr in | rain mn in | humidity % | barometer mb |
| 20260505101803 | 36 | 207 | 0.0 | 1.7 | 0.00 | 0.00 | 0.00 | 61 | |
| 20260505100903 | 36 | 207 | 0.0 | 1.7 | 0.00 | 0.00 | 0.00 | 60 | |
| 20260505100212 | 36 | 207 | 0.9 | 2.6 | 0.00 | 0.00 | 0.00 | 60 | |
| 20260505095403 | 37 | 207 | 1.7 | 2.6 | 0.00 | 0.00 | 0.00 | 58 | |
| 20260505094503 | 38 | 207 | 1.7 | 3.5 | 0.00 | 0.00 | 0.00 | 56 | |
| 20260505093603 | 39 | 208 | 0.9 | 2.6 | 0.00 | 0.00 | 0.00 | 53 | |
| 20260505092914 | 40 | 207 | 0.9 | 2.6 | 0.00 | 0.00 | 0.00 | 52 | |
| 20260505091803 | 40 | 207 | 1.7 | 3.5 | 0.00 | 0.00 | 0.00 | 51 | |
| 20260505090903 | 40 | 206 | 1.7 | 3.5 | 0.00 | 0.00 | 0.00 | 50 | |
| 20260505090003 | 41 | 206 | 1.7 | 3.5 | 0.00 | 0.00 | 0.00 | 49 | |
| 20260505085403 | 41 | 205 | 1.7 | 4.3 | 0.00 | 0.00 | 0.00 | 49 | |
| 20260505084503 | 41 | 190 | 0.9 | 3.5 | 0.00 | 0.00 | 0.00 | 48 | |
| 20260505083812 | 41 | 189 | 0.9 | 3.5 | 0.00 | 0.00 | 0.00 | 46 | |
| 20260505082703 | 42 | 188 | 1.7 | 3.5 | 0.00 | 0.00 | 0.00 | 45 | |
| 20260505082013 | 43 | 186 | 1.7 | 4.3 | 0.00 | 0.00 | 0.00 | 45 | |
| 20260505081114 | 43 | 176 | 1.7 | 3.5 | 0.00 | 0.00 | 0.00 | 44 | |
| 20260505080003 | 43 | 172 | 1.7 | 3.5 | 0.00 | 0.00 | 0.00 | 43 | |
| 20260505075403 | 43 | 172 | 1.7 | 4.3 | 0.00 | 0.00 | 0.00 | 43 | |
| 20260505074503 | 43 | 171 | 1.7 | 3.5 | 0.00 | 0.00 | 0.00 | 42 | |
| 20260505073603 | 42 | 172 | 0.9 | 3.5 | 0.00 | 0.00 | 0.00 | 42 | |
| 20260505072703 | 43 | 175 | 2.6 | 6.1 | 0.00 | 0.00 | 0.00 | 42 | |
| 20260505071803 | 43 | 186 | 3.5 | 6.1 | 0.00 | 0.00 | 0.00 | 42 | |
| 20260505070903 | 42 | 187 | 2.6 | 5.2 | 0.00 | 0.00 | 0.00 | 42 | |
| 20260505070003 | 42 | 186 | 1.7 | 4.3 | 0.00 | 0.00 | 0.00 | 43 | |
| 20260505065403 | 42 | 187 | 1.7 | 4.3 | 0.00 | 0.00 | 0.00 | 43 | |
| 20260505064503 | 42 | 174 | 1.7 | 5.2 | 0.00 | 0.00 | 0.00 | 42 | |
| 20260505063603 | 43 | 154 | 0.9 | 2.6 | 0.00 | 0.00 | 0.00 | 40 | |
| 20260505062703 | 44 | 154 | 0.0 | 2.6 | 0.00 | 0.00 | 0.00 | 38 | |
| 20260505061803 | 46 | 154 | 0.0 | 0.9 | 0.00 | 0.00 | 0.00 | 36 | |
| 20260505060903 | 48 | 153 | 0.9 | 2.6 | 0.00 | 0.00 | 0.00 | 34 | |
| 20260505060215 | 49 | 151 | 1.7 | 4.3 | 0.00 | 0.00 | 0.00 | 32 | |
| 20260505055403 | 49 | 145 | 2.6 | 6.1 | 0.00 | 0.00 | 0.00 | 31 | |
| 20260505054503 | 50 | 163 | 2.6 | 6.1 | 0.00 | 0.00 | 0.00 | 31 | |
| 20260505053603 | 51 | 149 | 3.5 | 6.1 | 0.00 | 0.00 | 0.00 | 30 | |
| 20260505052703 | 51 | 136 | 3.5 | 7.0 | 0.00 | 0.00 | 0.00 | 30 | |
| 20260505051803 | 50 | 139 | 3.5 | 7.8 | 0.00 | 0.00 | 0.00 | 31 | |
| 20260505050903 | 49 | 148 | 2.6 | 6.1 | 0.00 | 0.00 | 0.00 | 33 | |
| 20260505040903 | 53 | 166 | 2.6 | 7.8 | 0.00 | 0.00 | 0.00 | 32 | |
| 20260505040004 | 53 | 166 | 2.6 | 7.0 | 0.00 | 0.00 | 0.00 | 33 | |
| 20260505035403 | 53 | 164 | 3.5 | 10.4 | 0.00 | 0.00 | 0.00 | 33 | |
| 20260505034503 | 53 | 171 | 2.6 | 7.0 | 0.00 | 0.00 | 0.00 | 33 | |
| 20260505033603 | 53 | 176 | 3.5 | 8.7 | 0.00 | 0.00 | 0.00 | 34 | |
| 20260505032703 | 54 | 171 | 4.3 | 9.6 | 0.00 | 0.00 | 0.00 | 34 | |
| 20260505031803 | 54 | 185 | 3.5 | 8.7 | 0.00 | 0.00 | 0.00 | 34 | |
| 20260505030903 | 54 | 182 | 5.2 | 9.6 | 0.00 | 0.00 | 0.00 | 34 | |
| 20260505030003 | 54 | 184 | 6.1 | 11.3 | 0.00 | 0.00 | 0.00 | 34 | |
| 20260505025403 | 55 | 184 | 6.1 | 11.3 | 0.00 | 0.00 | 0.00 | 34 | |
| 20260505024503 | 55 | 186 | 7.0 | 13.0 | 0.00 | 0.00 | 0.00 | 34 | |
| 20260505023814 | 55 | 188 | 7.0 | 13.0 | 0.00 | 0.00 | 0.00 | 33 | |
| 20260505022703 | 56 | 194 | 5.2 | 11.3 | 0.00 | 0.00 | 0.00 | 34 | |
| 20260505021803 | 57 | 194 | 6.1 | 14.8 | 0.00 | 0.00 | 0.00 | 34 | |
| 20260505020903 | 58 | 195 | 7.0 | 14.8 | 0.00 | 0.00 | 0.00 | 34 | |
| 20260505020213 | 58 | 190 | 8.7 | 18.2 | 0.00 | 0.00 | 0.00 | 35 | |
| 20260505015403 | 59 | 187 | 8.7 | 18.2 | 0.00 | 0.00 | 0.00 | 35 | |
| 20260505014714 | 59 | 192 | 7.8 | 14.8 | 0.00 | 0.00 | 0.00 | 36 | |
| 20260505013603 | 59 | 197 | 7.8 | 15.6 | 0.00 | 0.00 | 0.00 | 37 | |
| 20260505012703 | 60 | 198 | 6.1 | 13.0 | 0.00 | 0.00 | 0.00 | 38 | |
| 20260505011803 | 60 | 192 | 8.7 | 16.5 | 0.00 | 0.00 | 0.00 | 38 | |
| 20260505010903 | 60 | 191 | 8.7 | 14.8 | 0.00 | 0.00 | 0.00 | 38 | |
| 20260505010003 | 61 | 190 | 8.7 | 17.4 | 0.00 | 0.00 | 0.00 | 37 | |
| 20260505005612 | 62 | 193 | 7.8 | 17.4 | 0.00 | 0.00 | 0.00 | 37 | |
| 20260505004503 | 62 | 189 | 9.6 | 16.5 | 0.00 | 0.00 | 0.00 | 37 | |
| 20260505003813 | 63 | 193 | 8.7 | 16.5 | 0.00 | 0.00 | 0.00 | 37 | |
| 20260505002912 | 63 | 190 | 9.6 | 16.5 | 0.00 | 0.00 | 0.00 | 37 | |
| 20260505001803 | 62 | 193 | 7.0 | 14.8 | 0.00 | 0.00 | 0.00 | 36 | |
| 20260505001113 | 62 | 190 | 7.8 | 19.1 | 0.00 | 0.00 | 0.00 | 36 | |
| 20260505000003 | 62 | 197 | 7.0 | 13.0 | 0.00 | 0.00 | 0.00 | 35 | |
| 20260504235403 | 63 | 195 | 7.8 | 15.6 | 0.00 | 0.00 | 0.00 | 35 | |
| 20260504234503 | 64 | 189 | 7.8 | 20.0 | 0.00 | 0.00 | 0.00 | 34 | |
| 20260504233813 | 64 | 178 | 7.8 | 15.6 | 0.00 | 0.00 | 0.00 | 33 | |
| 20260504232703 | 64 | 206 | 8.7 | 16.5 | 0.00 | 0.00 | 0.00 | 34 | |
| 20260504232013 | 64 | 203 | 7.8 | 15.6 | 0.00 | 0.00 | 0.00 | 33 | |
| 20260504231113 | 64 | 190 | 8.7 | 18.2 | 0.00 | 0.00 | 0.00 | 33 | |
| 20260504230003 | 64 | 197 | 10.4 | 18.2 | 0.00 | 0.00 | 0.00 | 33 | |
| 20260504225403 | 64 | 210 | 8.7 | 18.2 | 0.00 | 0.00 | 0.00 | 33 | |
| 20260504224503 | 65 | 202 | 9.6 | 18.2 | 0.00 | 0.00 | 0.00 | 34 | |
| 20260504223603 | 65 | 205 | 8.7 | 20.0 | 0.00 | 0.00 | 0.00 | 34 | |
| 20260504222703 | 66 | 203 | 9.6 | 17.4 | 0.00 | 0.00 | 0.00 | 33 | |
| 20260504222013 | 66 | 203 | 9.6 | 19.1 | 0.00 | 0.00 | 0.00 | 33 | |
| 20260504220903 | 67 | 204 | 9.6 | 17.4 | 0.00 | 0.00 | 0.00 | 31 | |
| 20260504220003 | 66 | 206 | 8.7 | 18.2 | 0.00 | 0.00 | 0.00 | 32 | |
| 20260504215403 | 66 | 208 | 8.7 | 17.4 | 0.00 | 0.00 | 0.00 | 33 | |
| 20260504214713 | 67 | 209 | 8.7 | 18.2 | 0.00 | 0.00 | 0.00 | 32 | |
| 20260504213603 | 67 | 203 | 8.7 | 18.2 | 0.00 | 0.00 | 0.00 | 32 | |
| 20260504212703 | 67 | 211 | 7.8 | 20.0 | 0.00 | 0.00 | 0.00 | 32 | |
| 20260504211803 | 66 | 208 | 8.7 | 20.0 | 0.00 | 0.00 | 0.00 | 32 | |
| 20260504210903 | 66 | 220 | 7.0 | 13.9 | 0.00 | 0.00 | 0.00 | 33 | |
| 20260504210004 | 67 | 183 | 9.6 | 17.4 | 0.00 | 0.00 | 0.00 | 33 | |
| 20260504205403 | 68 | 175 | 9.6 | 20.9 | 0.00 | 0.00 | 0.00 | 32 | |
| 20260504204714 | 68 | 180 | 10.4 | 20.9 | 0.00 | 0.00 | 0.00 | 33 | |
| 20260504203603 | 67 | 203 | 10.4 | 18.2 | 0.00 | 0.00 | 0.00 | 33 | |
| 20260504202703 | 66 | 207 | 9.6 | 16.5 | 0.00 | 0.00 | 0.00 | 35 | |
| 20260504201803 | 66 | 209 | 8.7 | 17.4 | 0.00 | 0.00 | 0.00 | 36 | |
| 20260504200903 | 66 | 204 | 8.7 | 18.2 | 0.00 | 0.00 | 0.00 | 36 | |
| 20260504200003 | 66 | 211 | 7.8 | 18.2 | 0.00 | 0.00 | 0.00 | 36 | |
| 20260504195403 | 66 | 216 | 8.7 | 18.2 | 0.00 | 0.00 | 0.00 | 36 | |
| 20260504194503 | 66 | 208 | 7.8 | 15.6 | 0.00 | 0.00 | 0.00 | 38 | |
| 20260504193813 | 67 | 198 | 7.0 | 15.6 | 0.00 | 0.00 | 0.00 | 36 | |
| 20260504192703 | 66 | 201 | 7.8 | 14.8 | 0.00 | 0.00 | 0.00 | 35 | |
| 20260504191803 | 66 | 212 | 7.8 | 19.1 | 0.00 | 0.00 | 0.00 | 38 | |
| 20260504191113 | 66 | 212 | 8.7 | 18.2 | 0.00 | 0.00 | 0.00 | 40 | |
| 20260504190003 | 65 | 193 | 8.7 | 16.5 | 0.00 | 0.00 | 0.00 | 39 | |
| 20260504185403 | 66 | 195 | 7.8 | 16.5 | 0.00 | 0.00 | 0.00 | 40 | |
| 20260504184503 | 65 | 188 | 8.7 | 16.5 | 0.00 | 0.00 | 0.00 | 41 | |
| 20260504183603 | 65 | 185 | 8.7 | 15.6 | 0.00 | 0.00 | 0.00 | 40 | |
| 20260504182703 | 64 | 177 | 8.7 | 14.8 | 0.00 | 0.00 | 0.00 | 39 | |
| 20260504181803 | 63 | 175 | 8.7 | 15.6 | 0.00 | 0.00 | 0.00 | 42 | |
| 20260504180903 | 64 | 194 | 10.4 | 20.0 | 0.00 | 0.00 | 0.00 | 42 | |
| 20260504180214 | 65 | 188 | 10.4 | 17.4 | 0.00 | 0.00 | 0.00 | 41 | |
| 20260504175403 | 63 | 186 | 10.4 | 19.1 | 0.00 | 0.00 | 0.00 | 43 | |
| 20260504174503 | 61 | 189 | 8.7 | 16.5 | 0.00 | 0.00 | 0.00 | 48 | |
| 20260504173603 | 61 | 195 | 8.7 | 18.2 | 0.00 | 0.00 | 0.00 | 45 | |
| 20260504172703 | 63 | 206 | 2.6 | 16.5 | 0.00 | 0.00 | 0.00 | 42 | |
| 20260504172013 | 62 | 234 | 0.9 | 3.5 | 0.00 | 0.00 | 0.00 | 45 | |
| 20260504170903 | 62 | 269 | 3.5 | 6.1 | 0.00 | 0.00 | 0.00 | 45 | |
| 20260504170214 | 62 | 273 | 3.5 | 6.1 | 0.00 | 0.00 | 0.00 | 47 | |
| 20260504150903 | 56 | 144 | 4.3 | 12.2 | 0.00 | 0.00 | 0.00 | 52 | |
| 20260504140903 | 54 | 171 | 1.7 | 2.6 | 0.00 | 0.00 | 0.00 | 65 |